CELESTIS-02

Last updated on Sat Aug 12 2023 00:03:38 GMT+0000 (Coordinated Universal Time)

1 25160U 98007D 23223.45088325 .00000105 00000+0 10432-3 0 9993 2 25160 107.9989 32.7476 0060865 112.4325 268.4934 14.21808509322776
UTC large
Height (km)
Speed (km/s)
/
Latitude / Longitude
Inclination (degrees)
Orbital Period (minutes)
Azimuth
Elevation
Range (km)
Doppler Factor

Next 0 passes for location: London (51.5072 / 0.1276)

Sorry there are no passes over London.
CELESTIS-02